Time,TemperatureF,DewpointF,PressureIn,WindDirection,WindDirectionDegrees,WindSpeedMPH,WindSpeedGustMPH,Humidity,HourlyPrecipIn,Conditions,Clouds,dailyrainin,SoftwareType,DateUTC
2013-01-26 00:02:00,37.0,29.0,30.16,North,9,0.0,-999.0,72,-99.99,,,-99.99,,2013-01-26 06:02:00,
2013-01-26 00:12:00,37.0,29.0,30.16,North,9,0.0,-999.0,72,-99.99,,,-99.99,,2013-01-26 06:12:00,
2013-01-26 00:21:00,37.0,29.0,30.16,North,9,0.0,-999.0,73,-99.99,,,-99.99,,2013-01-26 06:21:00,
2013-01-26 00:32:00,37.0,29.0,30.16,North,9,0.0,-999.0,73,-99.99,,,-99.99,,2013-01-26 06:32:00,
2013-01-26 00:41:00,37.0,29.0,30.16,North,9,0.0,-999.0,73,-99.99,,,-99.99,,2013-01-26 06:41:00,
2013-01-26 00:51:00,37.0,29.0,30.17,North,9,0.0,-999.0,72,-99.99,,,-99.99,,2013-01-26 06:51:00,
2013-01-26 01:02:00,37.0,29.0,30.18,North,9,0.0,-999.0,73,-99.99,,,-99.99,,2013-01-26 07:02:00,
2013-01-26 01:12:00,37.0,29.0,30.18,North,9,0.0,-999.0,73,-99.99,,,-99.99,,2013-01-26 07:12:00,
2013-01-26 01:21:00,37.0,29.0,30.18,North,9,0.0,-999.0,73,-99.99,,,-99.99,,2013-01-26 07:21:00,
2013-01-26 01:33:00,38.0,30.0,30.16,ENE,57,1.0,-999.0,72,-99.99,,,-99.99,,2013-01-26 07:33:00,
2013-01-26 01:42:00,38.0,30.0,30.16,ENE,57,1.0,-999.0,72,-99.99,,,-99.99,,2013-01-26 07:42:00,
2013-01-26 01:52:00,38.0,30.0,30.16,ENE,57,1.0,-999.0,72,-99.99,,,-99.99,,2013-01-26 07:52:00,
2013-01-26 02:02:00,37.0,29.0,30.16,ENE,57,1.0,-999.0,72,-99.99,,,-99.99,,2013-01-26 08:02:00,
2013-01-26 02:11:00,37.0,29.0,30.16,ENE,57,1.0,-999.0,72,-99.99,,,-99.99,,2013-01-26 08:11:00,
2013-01-26 02:21:00,37.0,29.0,30.16,ENE,57,0.0,-999.0,73,-99.99,,,-99.99,,2013-01-26 08:21:00,
2013-01-26 02:32:00,36.0,29.0,30.16,ENE,57,0.0,-999.0,74,-99.99,,,-99.99,,2013-01-26 08:32:00,
2013-01-26 02:42:00,36.0,29.0,30.16,ENE,57,0.0,-999.0,74,-99.99,,,-99.99,,2013-01-26 08:42:00,
2013-01-26 02:53:00,36.0,29.0,30.16,ENE,57,1.0,-999.0,74,-99.99,,,-99.99,,2013-01-26 08:53:00,
2013-01-26 03:02:00,37.0,29.0,30.16,ENE,57,0.0,-999.0,73,-99.99,,,-99.99,,2013-01-26 09:02:00,
2013-01-26 03:11:00,37.0,29.0,30.16,ENE,57,0.0,-999.0,73,-99.99,,,-99.99,,2013-01-26 09:11:00,
2013-01-26 03:22:00,36.0,28.0,30.15,ENE,57,0.0,-999.0,73,-99.99,,,-99.99,,2013-01-26 09:22:00,
2013-01-26 03:32:00,36.0,29.0,30.16,ENE,57,0.0,-999.0,74,-99.99,,,-99.99,,2013-01-26 09:32:00,
2013-01-26 03:42:00,36.0,29.0,30.16,ENE,57,0.0,-999.0,74,-99.99,,,-99.99,,2013-01-26 09:42:00,
2013-01-26 03:51:00,36.0,29.0,30.15,ENE,58,1.0,-999.0,74,-99.99,,,-99.99,,2013-01-26 09:51:00,
2013-01-26 04:01:00,37.0,29.0,30.15,East,92,1.0,-999.0,73,-99.99,,,-99.99,,2013-01-26 10:01:00,
2013-01-26 04:12:00,37.0,29.0,30.15,East,92,1.0,-999.0,73,-99.99,,,-99.99,,2013-01-26 10:12:00,
2013-01-26 04:21:00,36.0,29.0,30.15,East,92,0.0,-999.0,74,-99.99,,,-99.99,,2013-01-26 10:21:00,
2013-01-26 04:31:00,35.0,28.0,30.15,East,92,0.0,-999.0,76,-99.99,,,-99.99,,2013-01-26 10:31:00,
2013-01-26 04:42:00,35.0,28.0,30.15,East,92,0.0,-999.0,76,-99.99,,,-99.99,,2013-01-26 10:42:00,
2013-01-26 04:52:00,35.0,28.0,30.15,East,92,0.0,-999.0,76,-99.99,,,-99.99,,2013-01-26 10:52:00,
2013-01-26 05:01:00,36.0,29.0,30.14,East,92,0.0,-999.0,75,-99.99,,,-99.99,,2013-01-26 11:01:00,
2013-01-26 05:12:00,36.0,29.0,30.14,East,92,0.0,-999.0,75,-99.99,,,-99.99,,2013-01-26 11:12:00,
2013-01-26 05:22:00,36.0,28.0,30.14,East,92,0.0,-999.0,73,-99.99,,,-99.99,,2013-01-26 11:22:00,
2013-01-26 05:32:00,36.0,28.0,30.14,East,92,0.0,-999.0,72,-99.99,,,-99.99,,2013-01-26 11:32:00,
2013-01-26 05:42:00,36.0,28.0,30.14,East,92,0.0,-999.0,72,-99.99,,,-99.99,,2013-01-26 11:42:00,
2013-01-26 05:52:00,36.0,28.0,30.14,East,92,0.0,-999.0,72,-99.99,,,-99.99,,2013-01-26 11:52:00,
2013-01-26 06:02:00,36.0,28.0,30.14,East,92,1.0,-999.0,73,-99.99,,,-99.99,,2013-01-26 12:02:00,
2013-01-26 06:12:00,36.0,28.0,30.14,East,92,1.0,-999.0,73,-99.99,,,-99.99,,2013-01-26 12:12:00,
2013-01-26 06:22:00,36.0,28.0,30.14,East,92,1.0,-999.0,73,-99.99,,,-99.99,,2013-01-26 12:22:00,
2013-01-26 06:33:00,36.0,29.0,30.14,East,92,1.0,-999.0,74,-99.99,,,-99.99,,2013-01-26 12:33:00,
2013-01-26 06:42:00,36.0,29.0,30.14,East,92,1.0,-999.0,74,-99.99,,,-99.99,,2013-01-26 12:42:00,
2013-01-26 06:52:00,36.0,29.0,30.14,East,92,1.0,-999.0,74,-99.99,,,-99.99,,2013-01-26 12:52:00,
2013-01-26 07:03:00,36.0,29.0,30.14,East,86,1.0,-999.0,75,-99.99,,,-99.99,,2013-01-26 13:03:00,
2013-01-26 07:12:00,36.0,29.0,30.14,East,86,1.0,-999.0,75,-99.99,,,-99.99,,2013-01-26 13:12:00,
2013-01-26 07:22:00,36.0,29.0,30.15,East,86,1.0,-999.0,74,-99.99,,,-99.99,,2013-01-26 13:22:00,
2013-01-26 07:32:00,37.0,29.0,30.15,ESE,111,1.0,-999.0,73,-99.99,,,-99.99,,2013-01-26 13:32:00,
2013-01-26 07:42:00,37.0,29.0,30.15,ESE,111,1.0,-999.0,73,-99.99,,,-99.99,,2013-01-26 13:42:00,
2013-01-26 07:52:00,36.0,28.0,30.15,East,98,1.0,-999.0,73,-99.99,,,-99.99,,2013-01-26 13:52:00,
2013-01-26 08:03:00,37.0,28.0,30.16,ESE,115,2.0,-999.0,71,-99.99,,,-99.99,,2013-01-26 14:03:00,
2013-01-26 08:12:00,37.0,28.0,30.16,ESE,115,2.0,-999.0,71,-99.99,,,-99.99,,2013-01-26 14:12:00,
2013-01-26 08:21:00,37.0,28.0,30.16,East,82,1.0,-999.0,70,-99.99,,,-99.99,,2013-01-26 14:21:00,
2013-01-26 08:32:00,38.0,29.0,30.16,ESE,106,1.0,-999.0,69,-99.99,,,-99.99,,2013-01-26 14:32:00,
2013-01-26 08:43:00,38.0,29.0,30.16,ESE,106,1.0,-999.0,69,-99.99,,,-99.99,,2013-01-26 14:43:00,
2013-01-26 08:52:00,38.0,28.0,30.16,East,92,1.0,-999.0,68,-99.99,,,-99.99,,2013-01-26 14:52:00,
2013-01-26 09:03:00,39.0,29.0,30.16,ENE,76,2.0,-999.0,66,-99.99,,,-99.99,,2013-01-26 15:03:00,
2013-01-26 09:12:00,39.0,29.0,30.16,ENE,76,2.0,-999.0,66,-99.99,,,-99.99,,2013-01-26 15:12:00,
2013-01-26 09:22:00,40.0,29.0,30.16,East,97,2.0,-999.0,65,-99.99,,,-99.99,,2013-01-26 15:22:00,
2013-01-26 09:32:00,41.0,29.0,30.16,NE,49,2.0,-999.0,61,-99.99,,,-99.99,,2013-01-26 15:32:00,
2013-01-26 09:43:00,41.0,29.0,30.16,NE,49,2.0,-999.0,61,-99.99,,,-99.99,,2013-01-26 15:43:00,
2013-01-26 09:52:00,43.0,29.0,30.17,ESE,113,3.0,-999.0,57,-99.99,,,-99.99,,2013-01-26 15:52:00,
2013-01-26 10:02:00,44.0,28.0,30.16,ESE,106,4.0,-999.0,53,-99.99,,,-99.99,,2013-01-26 16:02:00,
2013-01-26 10:12:00,44.0,28.0,30.16,ESE,106,4.0,-999.0,53,-99.99,,,-99.99,,2013-01-26 16:12:00,
2013-01-26 10:22:00,45.0,27.0,30.16,East,92,4.0,-999.0,50,-99.99,,,-99.99,,2013-01-26 16:22:00,
2013-01-26 10:33:00,47.0,28.0,30.16,East,98,4.0,-999.0,47,-99.99,,,-99.99,,2013-01-26 16:33:00,
2013-01-26 10:42:00,47.0,28.0,30.16,East,98,4.0,-999.0,47,-99.99,,,-99.99,,2013-01-26 16:42:00,
2013-01-26 10:53:00,48.0,27.0,30.16,East,94,6.0,-999.0,43,-99.99,,,-99.99,,2013-01-26 16:53:00,
2013-01-26 11:03:00,49.0,26.0,30.16,East,100,5.0,-999.0,41,-99.99,,,-99.99,,2013-01-26 17:03:00,
2013-01-26 11:12:00,49.0,26.0,30.16,East,100,5.0,-999.0,41,-99.99,,,-99.99,,2013-01-26 17:12:00,
2013-01-26 11:22:00,50.0,27.0,30.17,ESE,109,5.0,-999.0,40,-99.99,,,-99.99,,2013-01-26 17:22:00,
2013-01-26 11:33:00,51.0,26.0,30.17,ESE,108,5.0,-999.0,38,-99.99,,,-99.99,,2013-01-26 17:33:00,
2013-01-26 11:42:00,51.0,26.0,30.17,ESE,108,5.0,-999.0,38,-99.99,,,-99.99,,2013-01-26 17:42:00,
2013-01-26 11:52:00,51.0,26.0,30.17,NE,51,5.0,-999.0,37,-99.99,,,-99.99,,2013-01-26 17:52:00,
2013-01-26 12:02:00,52.0,26.0,30.16,ESE,104,5.0,-999.0,36,-99.99,,,-99.99,,2013-01-26 18:02:00,
2013-01-26 12:12:00,52.0,26.0,30.16,ESE,104,5.0,-999.0,36,-99.99,,,-99.99,,2013-01-26 18:12:00,
2013-01-26 12:22:00,53.0,27.0,30.16,SE,125,4.0,-999.0,36,-99.99,,,-99.99,,2013-01-26 18:22:00,
2013-01-26 12:33:00,53.0,27.0,30.16,SE,134,3.0,-999.0,36,-99.99,,,-99.99,,2013-01-26 18:33:00,
2013-01-26 12:42:00,53.0,27.0,30.16,SE,134,3.0,-999.0,36,-99.99,,,-99.99,,2013-01-26 18:42:00,
2013-01-26 12:52:00,54.0,27.0,30.14,ESE,107,3.0,-999.0,35,-99.99,,,-99.99,,2013-01-26 18:52:00,
2013-01-26 13:03:00,55.0,28.0,30.13,SE,138,3.0,-999.0,35,-99.99,,,-99.99,,2013-01-26 19:03:00,
2013-01-26 13:12:00,55.0,28.0,30.13,SE,138,3.0,-999.0,35,-99.99,,,-99.99,,2013-01-26 19:12:00,
2013-01-26 13:22:00,55.0,27.0,30.12,SE,136,3.0,-999.0,34,-99.99,,,-99.99,,2013-01-26 19:22:00,
2013-01-26 13:32:00,56.0,27.0,30.11,East,100,3.0,-999.0,33,-99.99,,,-99.99,,2013-01-26 19:32:00,
2013-01-26 13:42:00,56.0,27.0,30.11,East,100,3.0,-999.0,33,-99.99,,,-99.99,,2013-01-26 19:42:00,
2013-01-26 13:52:00,57.0,27.0,30.09,East,99,4.0,-999.0,31,-99.99,,,-99.99,,2013-01-26 19:52:00,
2013-01-26 14:02:00,58.0,27.0,30.09,SE,146,3.0,-999.0,30,-99.99,,,-99.99,,2013-01-26 20:02:00,
2013-01-26 14:11:00,58.0,27.0,30.09,SE,146,3.0,-999.0,30,-99.99,,,-99.99,,2013-01-26 20:11:00,
2013-01-26 14:21:00,59.0,27.0,30.08,SE,124,2.0,-999.0,29,-99.99,,,-99.99,,2013-01-26 20:21:00,
2013-01-26 14:32:00,59.0,23.0,30.08,SSW,195,3.0,-999.0,25,-99.99,,,-99.99,,2013-01-26 20:32:00,
2013-01-26 14:42:00,59.0,23.0,30.08,SSW,195,3.0,-999.0,25,-99.99,,,-99.99,,2013-01-26 20:42:00,
2013-01-26 14:52:00,61.0,24.0,30.07,SE,140,4.0,-999.0,24,-99.99,,,-99.99,,2013-01-26 20:52:00,
2013-01-26 15:02:00,61.0,23.0,30.06,SE,129,4.0,-999.0,23,-99.99,,,-99.99,,2013-01-26 21:02:00,
2013-01-26 15:12:00,61.0,23.0,30.06,SE,129,4.0,-999.0,23,-99.99,,,-99.99,,2013-01-26 21:12:00,
2013-01-26 15:22:00,61.0,23.0,30.06,SSW,192,5.0,-999.0,23,-99.99,,,-99.99,,2013-01-26 21:22:00,
2013-01-26 15:32:00,61.0,24.0,30.06,SSW,193,4.0,-999.0,24,-99.99,,,-99.99,,2013-01-26 21:32:00,
2013-01-26 15:42:00,61.0,24.0,30.06,SSW,193,4.0,-999.0,24,-99.99,,,-99.99,,2013-01-26 21:42:00,
2013-01-26 15:51:00,59.0,23.0,30.06,East,101,3.0,-999.0,25,-99.99,,,-99.99,,2013-01-26 21:51:00,
2013-01-26 16:01:00,58.0,21.0,30.06,ESE,120,4.0,-999.0,24,-99.99,,,-99.99,,2013-01-26 22:01:00,
2013-01-26 16:11:00,58.0,21.0,30.06,ESE,120,4.0,-999.0,24,-99.99,,,-99.99,,2013-01-26 22:11:00,
2013-01-26 16:21:00,57.0,21.0,30.06,South,178,4.0,-999.0,24,-99.99,,,-99.99,,2013-01-26 22:21:00,
2013-01-26 16:32:00,57.0,22.0,30.06,South,169,3.0,-999.0,26,-99.99,,,-99.99,,2013-01-26 22:32:00,
2013-01-26 16:42:00,57.0,22.0,30.06,South,169,3.0,-999.0,26,-99.99,,,-99.99,,2013-01-26 22:42:00,
2013-01-26 16:51:00,56.0,23.0,30.06,South,178,4.0,-999.0,27,-99.99,,,-99.99,,2013-01-26 22:51:00,
2013-01-26 17:01:00,55.0,22.0,30.05,South,173,4.0,-999.0,27,-99.99,,,-99.99,,2013-01-26 23:01:00,
2013-01-26 17:12:00,55.0,22.0,30.05,South,173,4.0,-999.0,27,-99.99,,,-99.99,,2013-01-26 23:12:00,
2013-01-26 17:22:00,55.0,23.0,30.05,South,175,3.0,-999.0,28,-99.99,,,-99.99,,2013-01-26 23:22:00,
2013-01-26 17:32:00,54.0,22.0,30.05,SSW,203,3.0,-999.0,29,-99.99,,,-99.99,,2013-01-26 23:32:00,
2013-01-26 17:42:00,54.0,22.0,30.05,SSW,203,3.0,-999.0,29,-99.99,,,-99.99,,2013-01-26 23:42:00,
2013-01-26 17:52:00,53.0,22.0,30.05,SSE,153,3.0,-999.0,30,-99.99,,,-99.99,,2013-01-26 23:52:00,
2013-01-26 18:02:00,53.0,22.0,30.05,ESE,120,3.0,-999.0,30,-99.99,,,-99.99,,2013-01-27 00:02:00,
2013-01-26 18:11:00,53.0,22.0,30.05,ESE,120,3.0,-999.0,30,-99.99,,,-99.99,,2013-01-27 00:11:00,
2013-01-26 18:21:00,53.0,22.0,30.05,SE,139,3.0,-999.0,30,-99.99,,,-99.99,,2013-01-27 00:21:00,
2013-01-26 18:32:00,52.0,22.0,30.06,SSE,167,3.0,-999.0,31,-99.99,,,-99.99,,2013-01-27 00:32:00,
2013-01-26 18:42:00,52.0,22.0,30.06,SSE,167,3.0,-999.0,31,-99.99,,,-99.99,,2013-01-27 00:42:00,
2013-01-26 18:51:00,52.0,22.0,30.07,South,180,3.0,-999.0,30,-99.99,,,-99.99,,2013-01-27 00:51:00,
2013-01-26 19:01:00,52.0,23.0,30.06,SSE,156,2.0,-999.0,32,-99.99,,,-99.99,,2013-01-27 01:01:00,
2013-01-26 19:11:00,52.0,23.0,30.06,SSE,156,2.0,-999.0,32,-99.99,,,-99.99,,2013-01-27 01:11:00,
2013-01-26 19:22:00,52.0,23.0,30.07,SE,144,3.0,-999.0,32,-99.99,,,-99.99,,2013-01-27 01:22:00,
2013-01-26 19:32:00,52.0,25.0,30.07,SE,129,3.0,-999.0,34,-99.99,,,-99.99,,2013-01-27 01:32:00,
2013-01-26 19:42:00,52.0,25.0,30.07,SE,129,3.0,-999.0,34,-99.99,,,-99.99,,2013-01-27 01:42:00,
2013-01-26 19:52:00,52.0,25.0,30.07,SE,129,3.0,-999.0,34,-99.99,,,-99.99,,2013-01-27 01:52:00,
2013-01-26 20:01:00,51.0,23.0,30.07,SSE,159,4.0,-999.0,33,-99.99,,,-99.99,,2013-01-27 02:01:00,
2013-01-26 20:12:00,51.0,23.0,30.07,SSE,159,4.0,-999.0,33,-99.99,,,-99.99,,2013-01-27 02:12:00,
2013-01-26 20:22:00,51.0,23.0,30.07,South,186,4.0,-999.0,33,-99.99,,,-99.99,,2013-01-27 02:22:00,
2013-01-26 20:32:00,51.0,23.0,30.07,SSE,148,4.0,-999.0,33,-99.99,,,-99.99,,2013-01-27 02:32:00,
2013-01-26 20:42:00,51.0,23.0,30.07,SSE,148,4.0,-999.0,33,-99.99,,,-99.99,,2013-01-27 02:42:00,
2013-01-26 20:52:00,50.0,22.0,30.07,East,86,5.0,-999.0,33,-99.99,,,-99.99,,2013-01-27 02:52:00,
2013-01-26 21:02:00,50.0,22.0,30.07,SE,146,4.0,-999.0,33,-99.99,,,-99.99,,2013-01-27 03:02:00,
2013-01-26 21:11:00,50.0,22.0,30.07,SE,146,4.0,-999.0,33,-99.99,,,-99.99,,2013-01-27 03:11:00,
2013-01-26 21:21:00,49.0,22.0,30.07,South,182,4.0,-999.0,34,-99.99,,,-99.99,,2013-01-27 03:21:00,
2013-01-26 21:32:00,49.0,23.0,30.07,South,169,4.0,-999.0,35,-99.99,,,-99.99,,2013-01-27 03:32:00,
2013-01-26 21:42:00,49.0,23.0,30.07,South,169,4.0,-999.0,35,-99.99,,,-99.99,,2013-01-27 03:42:00,
2013-01-26 21:51:00,49.0,23.0,30.06,SE,134,3.0,-999.0,35,-99.99,,,-99.99,,2013-01-27 03:51:00,
2013-01-26 22:02:00,49.0,23.0,30.06,South,187,5.0,-999.0,35,-99.99,,,-99.99,,2013-01-27 04:02:00,
2013-01-26 22:11:00,49.0,23.0,30.06,South,187,5.0,-999.0,35,-99.99,,,-99.99,,2013-01-27 04:11:00,
2013-01-26 22:21:00,48.0,22.0,30.06,SE,140,4.0,-999.0,36,-99.99,,,-99.99,,2013-01-27 04:21:00,
2013-01-26 22:32:00,48.0,22.0,30.05,SSE,152,4.0,-999.0,36,-99.99,,,-99.99,,2013-01-27 04:32:00,
2013-01-26 22:41:00,48.0,22.0,30.05,SSE,152,4.0,-999.0,36,-99.99,,,-99.99,,2013-01-27 04:41:00,
2013-01-26 22:51:00,48.0,23.0,30.04,SE,142,4.0,-999.0,37,-99.99,,,-99.99,,2013-01-27 04:51:00,
2013-01-26 23:03:00,48.0,24.0,30.05,SSE,155,5.0,-999.0,39,-99.99,,,-99.99,,2013-01-27 05:03:00,
2013-01-26 23:12:00,48.0,24.0,30.05,SSE,155,5.0,-999.0,39,-99.99,,,-99.99,,2013-01-27 05:12:00,
2013-01-26 23:22:00,48.0,25.0,30.05,SSE,158,5.0,-999.0,40,-99.99,,,-99.99,,2013-01-27 05:22:00,
2013-01-26 23:32:00,48.0,27.0,30.04,SSE,159,5.0,-999.0,43,-99.99,,,-99.99,,2013-01-27 05:32:00,
2013-01-26 23:41:00,48.0,27.0,30.04,SSE,159,5.0,-999.0,43,-99.99,,,-99.99,,2013-01-27 05:41:00,
2013-01-26 23:52:00,47.0,29.0,30.04,SSE,148,5.0,-999.0,49,-99.99,,,-99.99,,2013-01-27 05:52:00,